Doha, Qatar

3:34 AM AST on December 11, 2016 (GMT +0300)
Doha

Weather History for OTBD - November, 2011

Change the Weather History Date:

Monday, November 7, 2011

  Actual Average Record
Temperature  
Mean Temperature 76 °F -  
Max Temperature 80 °F 83 °F 98 °F (2006)
Min Temperature 71 °F 65 °F 68 °F (1996)
Cooling Degree Days 10    
Growing Degree Days 26 (Base 50)    
Moisture  
Dew Point 65 °F    
Average Humidity 68    
Maximum Humidity 88    
Minimum Humidity 48    
Precipitation  
Precipitation 0.16 in 0.01 in - ()
Sea Level Pressure  
Sea Level Pressure 29.92 in    
Wind  
Wind Speed 9 mph ()    
Max Wind Speed 21 mph    
Max Gust Speed -    
Visibility 5.8 miles    
Events Rain    
Averages and records for this station are not official NWS values.
T = Trace of Precipitation, MM = Missing Value Source: Averaged Metar Reports

Daily Weather History Graph

Daily Weather History Graph

Search for Another Location

Airport or City:

Trip Planner

Search our weather history database for the weather conditions in past years. The results will help you decide how hot, cold, wet, or windy it might be!

Date:

Astronomy

Nov. 07, 2011 Rise Set
Actual Time 5:44 AM AST 4:49 PM AST
Civil Twilight 5:21 AM AST 5:13 PM AST
Nautical Twilight 4:53 AM AST 5:40 PM AST
Astronomical Twilight 4:26 AM AST 6:07 PM AST
Moon 2:37 PM AST (11/7) 2:41 AM AST (11/7)
Length of Visible Light 11h 52m
Length of Day
11h 04m
Waxing Gibbous, 89% of the Moon is Illuminated
Nov 7
Waxing Gibbous
Nov 10
Full
Nov 18
Last Quarter
Nov 25
New
Dec 2
First Quarter

Hourly Weather History & Observations

Time (AST) Temp. Heat Index Dew Point Humidity Pressure Visibility Wind Dir Wind Speed Gust Speed Precip Events Conditions
12:00 AM 82.4 °F 88.2 °F 73.4 °F 74% 29.83 in - SSE 8.1 mph - N/A   Clear
12:30 AM 80.6 °F 85.4 °F 73.4 °F 79% 29.80 in 6.2 mi ESE 3.5 mph - N/A   Partly Cloudy
1:00 AM 80.6 °F 85.4 °F 73.4 °F 79% 29.80 in 6.2 mi SE 4.6 mph - N/A   Partly Cloudy
1:30 AM 80.6 °F 85.4 °F 73.4 °F 79% 29.80 in 6.2 mi SE 4.6 mph - N/A   Partly Cloudy
2:00 AM 80.6 °F 86.2 °F 75.2 °F 84% 29.83 in 5.6 mi SSW 3.5 mph - N/A   Scattered Clouds
2:30 AM 78.8 °F - 66.2 °F 65% 29.83 in 5.0 mi NNW 16.1 mph - N/A   Mostly Cloudy
3:00 AM 77 °F - 68 °F 66% 29.86 in 6 mi North 17.3 mph - -   Scattered Clouds
3:00 AM 77.0 °F - 68.0 °F 74% 29.86 in 6.2 mi North 17.3 mph - N/A   Mostly Cloudy
3:30 AM 78.8 °F - 68.0 °F 69% 29.86 in - North 20.7 mph - N/A   Clear
4:00 AM 78.8 °F - 66.2 °F 65% 29.86 in - NNW 18.4 mph - N/A   Clear
4:30 AM 75.2 °F - 66.2 °F 73% 29.89 in 6.2 mi NNW 11.5 mph - N/A Rain Light Rain
5:00 AM 75.2 °F - 64.4 °F 69% 29.89 in 6.2 mi NW 12.7 mph - N/A Rain Light Rain
5:30 AM 73.4 °F - 66.2 °F 78% 29.89 in 6.2 mi NNW 9.2 mph - N/A   Mostly Cloudy
6:00 AM 73.4 °F - 66.2 °F 78% 29.89 in 6.2 mi North 5.8 mph - N/A   Mostly Cloudy
6:30 AM 73.4 °F - 66.2 °F 78% 29.89 in 6.2 mi NNW 8.1 mph - N/A   Mostly Cloudy
7:00 AM 75.2 °F - 66.2 °F 73% 29.92 in 6.2 mi NW 6.9 mph - N/A   Mostly Cloudy
7:30 AM 75.2 °F - 64.4 °F 69% 29.95 in 6.2 mi West 10.4 mph - N/A   Mostly Cloudy
8:00 AM 75.2 °F - 68.0 °F 78% 29.95 in 4.3 mi NW 9.2 mph - N/A Rain Rain
8:30 AM 75.2 °F - 66.2 °F 73% 29.98 in 5.0 mi NW 11.5 mph - N/A   Mostly Cloudy
9:00 AM 76 °F - 69 °F 74% 29.98 in 5 mi North 9.2 mph - -   Haze
9:00 AM 77.0 °F - 69.8 °F 78% 29.98 in 5.0 mi North 9.2 mph - N/A   Mostly Cloudy
10:00 AM 71.6 °F - 68.0 °F 88% 29.95 in 3.7 mi NNE 6.9 mph - N/A Rain Light Rain
10:30 AM 73.4 °F - 68.0 °F 83% 29.95 in 5.0 mi NNW 4.6 mph - N/A   Mostly Cloudy
11:00 AM 73.4 °F - 68.0 °F 83% 29.95 in 5.0 mi Variable 2.3 mph - N/A   Mostly Cloudy
11:30 AM 75.2 °F - 69.8 °F 83% 29.92 in 5.6 mi NNW 3.5 mph - N/A   Overcast
12:00 PM 75.2 °F - 69.8 °F 83% 29.92 in 6.2 mi NNW 6.9 mph - N/A   Mostly Cloudy
12:30 PM 77.0 °F - 69.8 °F 78% 29.92 in 6.2 mi NW 3.5 mph - N/A   Scattered Clouds
1:00 PM 78.8 °F - 68.0 °F 69% 29.89 in 6.2 mi WNW 4.6 mph - N/A   Scattered Clouds
2:00 PM 77.0 °F - 68.0 °F 74% 29.89 in 5.0 mi NNW 12.7 mph - N/A Rain Light Rain
2:30 PM 78.8 °F - 64.4 °F 61% 29.89 in 5.6 mi NNW 17.3 mph - N/A   Mostly Cloudy
3:00 PM 79 °F - 63 °F 48% 29.90 in 6 mi NNW 15.0 mph - -   Partly Cloudy
3:00 PM 78.8 °F - 62.6 °F 57% 29.89 in 6.2 mi NNW 15.0 mph - N/A   Scattered Clouds
3:30 PM 78.8 °F - 62.6 °F 57% 29.89 in 6.2 mi NNW 16.1 mph - N/A   Partly Cloudy
4:00 PM 77.0 °F - 60.8 °F 57% 29.92 in - NNW 17.3 mph - N/A   Clear
4:30 PM 77.0 °F - 60.8 °F 57% 29.92 in - NNW 17.3 mph - N/A   Clear
5:00 PM 75.2 °F - 60.8 °F 61% 29.92 in - NNW 15.0 mph - N/A   Clear
5:30 PM 75.2 °F - 60.8 °F 61% 29.95 in - NNW 15.0 mph - N/A   Clear
6:00 PM 75.2 °F - 59.0 °F 57% 29.95 in - NNW 13.8 mph - N/A   Clear
6:30 PM 73.4 °F - 59.0 °F 61% 29.98 in - NNW 12.7 mph - N/A   Clear
7:00 PM 73.4 °F - 59.0 °F 61% 29.98 in - NNW 11.5 mph - N/A   Clear
7:30 PM 73.4 °F - 59.0 °F 61% 29.98 in - NNW 11.5 mph - N/A   Clear
8:00 PM 73.4 °F - 59.0 °F 61% 29.98 in - NW 10.4 mph - N/A   Clear
8:30 PM 73.4 °F - 59.0 °F 61% 29.98 in - NW 11.5 mph - N/A   Clear
9:00 PM 72 °F - 57 °F 50% 29.98 in 9 mi NW 10.4 mph - -  
9:00 PM 73.4 °F - 57.2 °F 57% 29.98 in - NW 10.4 mph - N/A   Clear
9:30 PM 71.6 °F - 57.2 °F 60% 29.98 in - NW 9.2 mph - N/A   Clear
10:00 PM 71.6 °F - 57.2 °F 60% 29.98 in - NW 10.4 mph - N/A   Clear
10:30 PM 71.6 °F - 55.4 °F 57% 29.98 in - NW 10.4 mph - N/A   Clear
11:00 PM 71.6 °F - 55.4 °F 57% 29.98 in - NW 10.4 mph - N/A   Clear
11:30 PM 71.6 °F - 55.4 °F 57% 29.98 in - NW 10.4 mph - N/A   Clear